Location: Bethune
(34.4150°N, 80.3490°W)
Time: 08:55:17
(UTC-04:00)

ISS - Visible Passes

Search period start: 03 August 2020 00:00
Search period end: 13 August 2020 00:00
Orbit: 419 x 420 km, 51.6° (Epoch: 04 August)

Date Brightness Start Highest point End Pass type
(mag) Time Alt. Az. Time Alt. Az. Time Alt. Az.
03 Aug -2.5 22:15:58 10° WNW 22:18:49 33° WSW 22:18:49 33° WSW visible
04 Aug -3.6 21:28:13 10° NW 21:31:34 67° SW 21:33:14 27° SSE visible
06 Aug -1.4 21:30:35 10° W 21:32:59 18° SW 21:35:18 10° S visible
07 Aug -2.3 20:42:26 10° WNW 20:45:32 34° SW 20:48:35 10° SSE visible
